Regional Weather Roundup
Issued by NWS Sioux Falls, SD

Home | Current Version | Previous Version | Graphics & Text | Print | Product List | Glossary Off
Versions: 1 2 3 4 5 6 7 8 9 10 11 12 13 14 15 16 17 18 19 20 21 22 23 24 25 26 27 28 29 30 31 32 33 34 35 36 37 38 39 40 41 42 43 44 45 46 47 48 49 50

000
ASUS43 KFSD 240702
RWRFSD

WEATHER ROUNDUP FOR SE SOUTH DAKOTA/SW MINNESOTA/NW IOWA
NATIONAL WEATHER SERVICE SIOUX FALLS SD
200 AM CDT TUE MAY 24 2016

NOTE: "FAIR" INDICATES FEW OR NO CLOUDS BELOW 12,000 FEET WITH NO
SIGNIFICANT WEATHER AND OR OBSTRUCTIONS TO VISIBILITY.


SDZ038>040-050-052>070-240800-
SOUTHEAST SOUTH DAKOTA

CITY           SKY/WX    TMP DP  RH WIND       PRES   REMARKS
BROOKINGS      CLEAR     60  59  96 S7        29.78S FOG
CHAMBERLAIN    NOT AVBL
HURON          CLEAR     59  57  93 SE3       29.75R
MADISON        FAIR      61  61 100 S6        29.79S
MITCHELL       CLEAR     64  62  93 SE5       29.74F
SIOUX FALLS    CLEAR     63  60  90 S7        29.78S
WINNER         FAIR      58  45  62 SW8       29.76R
YANKTON        CLEAR     63  59  88 SE7       29.77R
$$

MNZ071-072-080-081-089-090-097-098-240800-
SOUTHWEST MINNESOTA

CITY           SKY/WX    TMP DP  RH WIND       PRES   REMARKS
FAIRMONT       CLOUDY    64  59  82 S12       29.80S
JACKSON        CLOUDY    64  59  82 S9        29.81S
LUVERNE        FOG       61  59  94 S5        29.80S VSB 1
MARSHALL       CLOUDY    64  61  90 SW10      29.78S
MONTEVIDEO     CLOUDY    63  61  94 SW7       29.77S
PIPESTONE      CLOUDY    63  61  94 S6        29.80R FOG
REDWOOD FALLS  MOCLDY    63  60  90 S12       29.77S
TRACY          CLOUDY    64  63  94 SW8       29.79S
WINDOM         MOCLDY    64  61  88 CALM      29.80R
WORTHINGTON    CLOUDY    63  61  93 S13       29.81R
$$

IAZ001>003-012>014-020>022-031-032-NEZ013-014-SDZ071-240800-
NORTHWEST IOWA

CITY           SKY/WX    TMP DP  RH WIND       PRES   REMARKS
DENISON        LGT RAIN  64  63  94 SE16G24   29.80F
ESTHERVILLE    MOCLDY    62  60  93 S13       29.80S
SIOUX CITY       N/A    N/A N/A N/A MISG      29.80F
SPENCER        CLOUDY    63  60  90 S9        29.81S
STORM LAKE     CLOUDY    63  61  94 S21       29.80S
$$

ABBREVIATIONS USED IN REMARKS
   TC - TEMPERATURE IN CELSIUS
  WCI - WIND CHILL INDEX
   HX - HEAT INDEX
  VSB - VISIBILITY





USA.gov is the U.S. government's official web portal to all federal, state and local government web resources and services.